Theta_e
318 318 320 321 321 321 321 321 321 322 322 322 322 323 322 323 323 324 324 325 327 330 332 348 348 350 350 348 347 347 346 348 348 349 349 350 347 340 335 330 331 329 327 328
321 321 320 320 320 321 321 321 321 321 321 321 322 322 322 323 323 324 324 325 325 328 332 340 349 350 351 349 348 348 347 350 349 349 349 349 345 339 333 329 331 328 328 329
322 322 321 320 320 319 319 319 320 320 320 321 321 321 322 322 323 323 324 324 325 326 329 335 351 350 351 350 350 349 348 351 350 349 350 349 344 339 334 332 330 328 328 329
321 321 320 319 319 320 320 319 319 319 320 321 322 321 322 322 323 323 324 324 324 325 327 339 345 352 351 349 348 349 350 351 350 351 350 348 345 341 336 332 329 328 328 328
320 320 321 320 319 319 319 319 319 320 321 321 320 321 321 323 323 324 324 324 324 325 325 329 345 353 353 346 350 350 348 351 350 351 351 351 347 343 338 333 329 328 328 328
321 321 320 320 320 319 319 319 319 320 320 321 321 321 321 322 323 324 324 324 325 325 325 327 328 349 355 353 352 353 352 349 348 350 352 352 349 344 340 335 331 328 328 329
322 321 321 320 320 320 320 320 322 322 321 321 320 321 322 323 323 326 326 328 329 329 328 327 327 327 346 355 353 354 353 350 349 349 350 350 349 347 344 337 332 329 328 328
322 323 322 322 321 322 321 321 322 323 323 322 322 321 321 323 326 327 325 326 329 330 330 330 330 331 331 336 350 354 355 352 348 340 348 346 339 347 348 337 334 331 329 329
320 321 321 322 322 323 323 323 323 326 324 323 322 322 322 327 328 327 326 327 329 330 330 331 331 331 331 331 339 350 353 355 345 346 347 340 332 342 349 339 336 333 329 329
317 319 318 320 319 319 322 322 325 324 328 329 324 323 322 327 327 327 328 329 328 329 329 330 332 333 333 332 333 345 348 356 355 351 351 350 346 349 351 342 337 333 330 329
313 314 314 314 316 316 318 321 322 323 326 331 328 322 330 328 330 329 328 327 327 328 329 330 331 333 333 333 330 333 342 345 350 354 352 351 350 350 351 343 336 335 331 331
310 312 314 312 314 314 315 317 322 326 329 326 326 329 328 328 329 327 325 324 325 326 328 330 330 331 332 334 334 330 330 342 343 346 352 350 349 351 343 339 338 335 333 333
310 310 311 311 311 312 311 313 315 319 322 327 329 328 325 325 323 321 320 319 320 322 326 328 330 330 331 332 334 334 329 329 341 342 345 347 348 347 341 335 335 333 331 332
305 306 308 309 310 309 310 314 313 314 317 318 320 323 322 324 326 323 320 316 317 319 323 326 329 329 329 330 331 333 334 330 336 342 341 345 345 340 338 335 334 329 325 329
307 309 308 307 307 306 306 306 307 307 310 312 313 315 316 317 318 317 313 312 315 318 319 319 323 328 329 329 330 330 333 334 338 342 340 341 342 338 335 337 328 330 331 332
307 309 308 307 306 306 305 305 305 305 306 306 307 309 311 311 308 310 309 310 312 316 317 317 319 323 327 328 329 330 332 335 334 335 339 340 340 338 336 338 332 334 334 333
308 309 309 310 308 307 308 306 306 306 306 306 307 308 309 309 309 309 309 309 309 310 311 313 316 321 324 325 327 329 334 335 335 334 335 336 338 337 335 335 335 335 335 335
308 308 308 309 307 309 307 307 307 307 307 307 308 308 308 308 309 309 309 309 309 309 310 311 313 318 321 323 324 326 328 333 335 333 333 332 335 334 335 334 334 335 335 335
307 308 309 313 309 308 307 307 307 308 308 307 308 308 308 309 310 310 310 310 309 310 311 310 310 312 316 319 321 324 326 328 330 330 329 330 331 334 335 334 334 334 335 335
307 308 311 309 311 311 309 308 308 308 309 309 309 310 310 310 310 310 312 312 311 311 311 312 312 311 312 315 322 323 324 325 327 327 325 327 330 331 332 334 333 331 335 335
309 310 313 312 312 309 308 308 308 310 311 311 310 310 310 310 310 311 311 311 310 310 310 310 311 313 313 317 321 321 323 323 324 327 327 325 328 333 331 333 333 331 334 334
310 311 314 313 314 313 310 311 312 312 312 312 311 311 312 312 311 310 310 310 310 310 309 309 310 311 313 316 320 323 322 320 323 325 324 320 323 320 329 332 333 332 333 334
313 311 314 312 313 311 308 308 308 308 309 309 309 310 310 310 310 310 310 310 310 310 309 308 309 310 311 314 318 321 322 320 320 323 320 319 318 316 317 319 323 329 332 332
308 310 312 311 309 307 307 308 309 309 309 309 309 309 309 308 309 309 309 309 310 308 309 308 308 309 310 311 315 317 320 320 320 320 319 317 315 314 314 313 314 310 313 318
308 308 310 311 310 308 307 307 306 306 305 306 307 309 309 308 309 308 309 309 309 309 308 308 308 308 309 310 314 316 319 320 320 319 318 316 317 312 311 312 312 313 311 308
309 310 310 309 306 305 305 304 303 305 305 306 305 306 306 307 306 308 309 308 308 308 307 307 308 308 308 309 311 315 317 319 319 318 317 316 315 312 312 309 309 313 314 313
Wind_Speed
15 11 16 18 19 21 21 21 22 14 17 17 16 18 21 19 20 16 16 18 22 19 25 29 26 20 24 21 27 28 29 35 33 29 26 23 21 20 17 15 15 15 14 12
13 16 17 16 16 17 18 20 23 19 19 14 17 21 20 20 17 18 18 19 18 21 21 16 22 29 34 29 25 25 26 30 33 30 26 23 21 20 19 17 16 15 15 13
18 17 16 12 16 16 19 19 20 21 21 22 20 23 23 23 23 22 21 21 20 22 21 18 24 27 34 36 24 26 28 29 29 29 26 21 20 19 19 18 18 18 17 15
20 20 20 20 15 17 20 18 18 19 17 17 19 18 22 23 26 25 23 22 20 21 22 22 18 27 30 30 40 28 30 31 30 27 29 29 27 23 25 22 20 21 18 17
20 20 22 19 20 17 18 19 19 17 18 20 22 16 20 16 19 16 17 19 22 20 22 22 26 29 31 29 29 46 54 36 28 30 28 31 27 24 23 24 24 22 21 18
24 18 21 16 14 17 17 19 22 20 18 17 24 22 21 18 21 22 13 15 13 13 17 20 21 37 36 34 36 40 37 43 32 29 25 28 24 21 22 24 27 25 23 21
23 25 24 18 19 18 16 16 13 16 15 19 22 22 21 15 20 5 6 7 8 9 9 11 13 12 33 39 36 36 32 28 43 32 23 28 22 22 25 27 26 27 27 25
18 17 19 18 17 21 24 22 16 23 18 20 21 23 20 17 8 2 4 1 4 7 10 8 10 13 17 25 33 33 32 34 38 48 48 34 20 33 39 42 31 30 29 30
14 20 12 2 9 10 17 21 21 25 26 21 22 21 18 12 10 8 4 2 5 7 6 6 6 8 13 17 26 29 32 37 33 35 35 38 49 51 40 37 31 27 24 26
6 12 21 8 4 15 19 18 15 14 23 26 21 23 18 21 17 11 11 7 4 4 6 5 5 3 7 13 15 26 31 36 36 38 37 39 40 35 32 33 32 30 27 25
13 9 18 22 12 17 17 18 20 19 17 15 19 18 11 4 7 12 8 5 4 4 7 8 8 8 8 6 8 14 22 25 29 41 39 36 33 34 31 33 37 28 28 21
9 7 14 19 16 5 11 16 21 10 18 20 19 12 12 7 10 3 7 6 6 6 8 9 10 12 12 12 12 10 17 21 25 27 27 31 33 31 34 30 23 18 19 13
9 7 12 15 17 18 12 19 16 17 16 18 12 12 10 2 2 2 3 6 9 8 9 9 10 11 13 15 15 14 11 19 22 24 26 27 28 31 32 34 33 32 25 26
4 11 15 14 18 9 8 16 13 15 14 20 21 27 23 7 15 18 13 12 10 8 9 10 9 11 16 16 17 17 15 13 21 20 21 24 24 28 34 35 40 46 50 42
8 14 16 17 16 16 17 17 17 16 17 20 21 24 15 11 3 16 17 11 11 9 7 9 11 12 13 18 19 20 15 16 9 15 17 20 27 34 35 31 38 41 48 49
5 13 14 17 18 18 21 21 20 21 22 22 22 22 20 17 4 15 12 11 8 11 10 11 11 12 14 17 20 22 14 12 12 9 13 18 29 29 36 34 38 41 41 45
12 12 13 17 17 18 14 16 20 21 22 19 20 20 17 14 10 9 11 10 10 9 11 13 12 10 8 14 18 20 18 12 11 11 9 9 19 22 28 31 36 39 38 38
16 15 13 13 16 17 18 14 6 14 17 17 18 18 17 16 15 13 14 13 10 11 12 12 12 14 13 11 13 18 19 15 10 12 15 18 16 24 27 31 35 35 34 34
13 13 12 12 15 18 21 14 15 15 17 16 16 17 16 14 13 14 17 14 8 8 11 12 16 16 16 18 15 14 15 13 10 9 12 15 15 16 26 30 29 32 36 33
10 11 11 14 15 18 16 17 6 10 16 15 14 17 20 15 10 6 10 10 8 9 12 14 16 16 17 18 9 11 10 11 12 9 7 10 11 10 15 27 30 41 29 32
9 10 12 12 12 11 17 20 16 14 13 18 13 11 9 9 10 13 10 11 9 12 11 15 17 15 15 11 10 6 9 11 9 8 7 7 7 8 14 21 29 35 29 30
13 8 9 9 7 11 16 16 15 17 22 19 18 15 16 17 16 13 16 14 13 12 14 12 15 15 14 11 5 10 4 6 5 4 5 9 13 15 11 10 21 29 29 27
5 2 6 5 7 20 22 20 19 19 23 22 21 23 23 18 17 17 15 19 15 18 16 15 14 17 15 14 9 8 3 4 2 6 8 10 14 20 21 21 19 9 17 23
7 10 5 11 11 15 17 21 21 23 25 24 24 26 23 22 21 18 18 19 18 23 22 20 18 14 15 14 14 7 11 10 9 7 11 11 13 23 15 26 27 24 17 12
13 11 9 17 20 19 17 18 21 21 21 22 24 22 21 19 21 19 20 17 16 23 25 21 20 14 16 13 15 4 15 12 12 10 9 11 9 12 22 23 23 18 17 17
4 4 3 6 16 15 15 17 22 22 20 19 19 19 20 21 19 19 19 17 25 18 18 19 16 20 14 14 14 11 10 15 13 12 10 9 12 17 13 13 18 15 2 3
Wind_Direction
197 216 221 231 232 257 275 284 284 273 244 253 250 252 252 237 252 251 254 233 238 209 257 173 177 168 180 200 182 192 184 172 171 171 178 179 177 176 178 178 166 169 172 172
206 228 249 249 247 261 252 261 266 271 265 266 252 252 260 264 253 254 253 248 236 237 219 197 179 180 176 198 188 190 196 180 175 175 180 181 182 179 178 174 170 173 172 175
234 232 225 236 256 245 251 252 264 258 260 237 253 259 253 253 253 250 249 250 248 250 236 197 175 187 175 175 186 189 200 192 187 179 175 173 178 173 174 170 171 176 177 178
246 236 249 259 240 252 252 245 247 266 267 255 238 255 251 237 238 243 240 240 246 243 256 193 197 175 187 174 174 194 205 195 193 189 180 180 186 182 188 180 179 177 180 181
251 255 238 252 258 248 252 264 260 244 249 266 260 264 266 261 245 238 231 237 236 234 235 240 185 180 190 187 192 188 189 190 198 198 190 183 191 195 187 181 175 176 178 183
261 261 267 269 253 242 253 256 252 258 261 245 244 250 254 244 238 239 212 251 253 252 240 237 229 182 182 189 196 201 209 175 185 213 189 187 193 192 193 189 177 180 181 184
239 234 243 233 249 257 248 239 251 245 235 246 247 245 249 262 266 24 49 19 1 343 301 294 304 238 183 180 201 197 198 183 186 196 197 185 186 204 203 193 187 184 181 186
278 267 225 199 221 248 240 235 235 247 252 259 241 233 244 234 122 153 203 14 5 347 343 335 304 307 301 198 197 194 191 197 192 190 193 201 188 236 209 190 193 192 188 182
305 267 249 206 271 266 258 257 256 255 272 276 272 267 273 145 160 173 145 30 24 347 319 309 303 295 303 300 200 206 208 199 205 207 207 204 188 210 210 184 190 191 193 183
335 287 282 260 238 262 264 276 275 248 253 254 259 262 260 191 188 163 151 143 81 337 312 328 314 338 291 287 284 205 214 187 200 201 203 207 206 211 200 184 185 189 192 193
300 270 279 292 258 266 262 239 250 264 261 256 270 257 25 30 100 150 118 91 72 7 358 349 351 356 329 308 270 264 206 220 210 193 197 210 213 206 199 183 181 188 185 180
328 308 284 278 283 342 286 279 282 256 255 266 272 250 55 53 117 101 90 47 20 12 24 351 2 14 359 347 333 296 256 207 216 208 201 199 213 197 182 175 166 171 150 176
6 255 276 268 238 230 244 257 252 263 278 251 272 243 97 212 97 69 35 19 343 358 15 8 3 14 10 2 345 326 287 247 204 204 208 207 209 189 177 168 164 156 156 205
322 271 268 277 303 330 282 299 266 249 263 256 242 258 260 274 327 335 327 343 325 335 353 11 359 8 1 12 360 343 321 275 210 204 208 202 199 169 169 169 172 172 173 195
241 278 283 281 292 296 285 277 274 266 264 260 267 271 265 259 41 244 286 309 302 302 330 351 349 348 360 359 358 355 333 322 317 194 207 211 172 181 181 187 177 185 188 192
253 264 279 274 269 261 266 264 264 262 261 265 268 268 283 297 210 256 286 306 317 309 312 321 327 335 357 352 3 346 351 337 319 277 222 192 168 175 191 197 193 200 196 193
271 266 276 278 283 288 268 265 261 254 254 256 260 267 275 287 254 294 289 300 312 323 322 309 305 311 3 333 5 356 4 348 338 315 261 206 168 176 188 195 198 201 203 197
262 266 273 271 279 268 270 274 304 293 294 288 258 258 270 277 292 285 279 288 303 312 313 313 300 305 321 326 341 352 1 5 356 353 340 343 213 192 196 201 204 206 204 199
235 258 266 267 267 272 279 278 265 286 268 276 280 279 277 286 298 293 275 266 287 340 326 317 306 302 307 304 304 326 340 2 352 2 358 349 329 208 196 195 202 203 207 200
237 243 256 269 273 268 266 277 331 295 277 289 282 283 260 276 252 241 18 7 341 305 316 317 306 287 283 291 299 299 327 346 354 352 356 351 339 272 231 196 192 202 210 195
231 245 231 241 254 273 282 285 293 269 287 311 312 308 294 261 278 332 319 305 293 297 296 309 306 293 277 300 290 289 320 336 346 346 357 28 12 313 233 214 188 196 203 191
283 283 261 253 247 257 13 341 309 322 318 316 301 288 293 295 302 297 289 285 282 282 288 293 298 300 290 298 299 267 292 337 342 346 41 48 66 39 33 191 198 197 197 190
305 345 299 297 291 314 314 309 305 299 294 293 285 281 279 276 285 286 279 292 287 294 279 282 285 284 284 264 283 232 235 169 66 91 71 68 86 59 66 64 62 88 184 158
309 312 259 288 274 276 293 305 300 299 296 293 289 286 281 275 280 290 275 275 271 273 272 272 268 275 278 275 258 287 234 185 182 136 104 89 83 89 76 62 58 43 43 45
288 287 274 281 283 323 295 315 304 297 291 287 279 286 276 271 266 269 267 264 266 269 261 255 265 259 278 273 294 230 235 198 174 159 140 124 110 101 97 89 64 51 36 30
312 20 300 287 302 291 289 291 293 290 284 279 276 275 277 277 271 267 256 253 255 253 264 254 245 251 253 277 258 256 232 215 193 157 163 145 131 118 108 108 108 100 42 305